TimeEST,TemperatureF,Dew PointF,Humidity,Sea Level PressureIn,VisibilityMPH,Wind Direction,Wind SpeedMPH,Gust SpeedMPH,PrecipitationIn,Events,Conditions,WindDirDegrees,DateUTC
12:53 AM,70.0,70.0,100,30.04,10.0,WNW,5.8,-,N/A,,Partly Cloudy,290,2011-11-24 05:53:00
1:29 AM,69.8,69.8,100,30.03,10.0,WNW,6.9,-,N/A,,Mostly Cloudy,300,2011-11-24 06:29:00
1:53 AM,71.1,71.1,100,30.03,10.0,NW,9.2,-,N/A,,Mostly Cloudy,320,2011-11-24 06:53:00
2:34 AM,69.8,69.8,100,30.02,10.0,NW,11.5,-,N/A,,Scattered Clouds,320,2011-11-24 07:34:00
2:53 AM,69.1,69.1,100,30.02,10.0,NW,8.1,-,N/A,,Partly Cloudy,320,2011-11-24 07:53:00
3:53 AM,69.1,68.0,96,30.02,10.0,NNW,10.4,-,N/A,,Partly Cloudy,330,2011-11-24 08:53:00
4:04 AM,69.8,68.0,94,30.03,10.0,NNW,11.5,-,N/A,,Mostly Cloudy,330,2011-11-24 09:04:00
4:53 AM,69.1,68.0,96,30.04,10.0,NNW,9.2,-,N/A,,Mostly Cloudy,330,2011-11-24 09:53:00
5:53 AM,66.9,66.9,100,30.05,10.0,NW,4.6,-,N/A,,Mostly Cloudy,310,2011-11-24 10:53:00
6:02 AM,66.2,66.2,100,30.05,10.0,NW,4.6,-,N/A,,Scattered Clouds,310,2011-11-24 11:02:00
6:53 AM,66.9,66.9,100,30.07,10.0,NW,6.9,-,N/A,,Partly Cloudy,310,2011-11-24 11:53:00
7:53 AM,69.1,68.0,96,30.09,10.0,NW,5.8,-,N/A,,Partly Cloudy,310,2011-11-24 12:53:00
8:53 AM,73.9,68.0,82,30.10,10.0,NNW,9.2,-,N/A,,Scattered Clouds,340,2011-11-24 13:53:00
9:53 AM,79.0,66.9,66,30.12,10.0,NNE,10.4,-,N/A,,Scattered Clouds,30,2011-11-24 14:53:00
10:53 AM,80.1,64.0,58,30.12,10.0,NE,13.8,-,N/A,,Scattered Clouds,40,2011-11-24 15:53:00
11:53 AM,80.1,62.1,54,30.12,10.0,NE,15.0,23.0,N/A,,Scattered Clouds,40,2011-11-24 16:53:00
12:53 PM,79.0,62.1,56,30.10,10.0,NE,13.8,23.0,N/A,,Scattered Clouds,40,2011-11-24 17:53:00
1:53 PM,79.0,62.1,56,30.09,10.0,NE,16.1,21.9,N/A,,Mostly Cloudy,50,2011-11-24 18:53:00
2:53 PM,77.0,60.1,56,30.10,10.0,NNE,12.7,21.9,N/A,,Mostly Cloudy,30,2011-11-24 19:53:00
3:53 PM,75.9,62.1,62,30.11,10.0,NE,12.7,24.2,N/A,,Scattered Clouds,40,2011-11-24 20:53:00
4:53 PM,75.0,59.0,57,30.12,10.0,NE,12.7,-,N/A,,Scattered Clouds,50,2011-11-24 21:53:00
5:53 PM,73.9,57.9,57,30.13,10.0,NE,11.5,-,N/A,,Mostly Cloudy,40,2011-11-24 22:53:00
6:53 PM,73.0,60.1,64,30.15,10.0,NE,11.5,20.7,N/A,,Scattered Clouds,50,2011-11-24 23:53:00
7:53 PM,72.0,57.9,61,30.17,10.0,ENE,13.8,19.6,N/A,,Scattered Clouds,60,2011-11-25 00:53:00
8:53 PM,72.0,57.9,61,30.18,10.0,NE,10.4,19.6,N/A,,Scattered Clouds,50,2011-11-25 01:53:00
9:53 PM,73.0,57.0,57,30.19,10.0,NE,13.8,-,N/A,,Scattered Clouds,40,2011-11-25 02:53:00
10:53 PM,73.0,59.0,61,30.19,10.0,ENE,13.8,-,N/A,,Mostly Cloudy,70,2011-11-25 03:53:00
11:53 PM,72.0,55.0,55,30.18,10.0,ENE,8.1,-,N/A,,Scattered Clouds,70,2011-11-25 04:53:00